Time,TemperatureF,DewpointF,PressureIn,WindDirection,WindDirectionDegrees,WindSpeedMPH,WindSpeedGustMPH,Humidity,HourlyPrecipIn,Conditions,Clouds,dailyrainin,SoftwareType,DateUTC
2013-08-13 00:01:00,70.7,69.4,29.91,NE,45,0.7,0.7,96,0.00,,,0.00,meteobridge,2013-08-13 04:01:00,
2013-08-13 00:02:00,70.7,69.4,29.91,NE,45,0.7,0.7,96,0.00,,,0.00,meteobridge,2013-08-13 04:02:00,
2013-08-13 00:07:00,70.7,69.4,29.91,NE,45,0.7,0.7,96,0.00,,,0.00,meteobridge,2013-08-13 04:07:00,
2013-08-13 00:12:00,70.5,69.3,29.90,West,270,0.0,0.0,96,0.00,,,0.00,meteobridge,2013-08-13 04:12:00,
2013-08-13 00:17:00,70.5,69.3,29.90,West,270,0.0,0.0,96,0.00,,,0.00,meteobridge,2013-08-13 04:17:00,
2013-08-13 00:22:00,70.3,69.1,29.90,West,270,0.0,0.0,96,0.00,,,0.00,meteobridge,2013-08-13 04:22:00,
2013-08-13 00:27:00,70.2,68.9,29.90,West,270,0.0,0.0,96,0.00,,,0.00,meteobridge,2013-08-13 04:27:00,
2013-08-13 00:33:00,70.0,68.7,29.90,West,270,0.0,0.0,96,0.00,,,0.00,meteobridge,2013-08-13 04:33:00,
2013-08-13 00:38:00,70.0,68.7,29.90,West,270,0.0,0.0,96,0.00,,,0.00,meteobridge,2013-08-13 04:38:00,
2013-08-13 00:43:00,69.8,68.5,29.90,West,270,0.0,0.0,96,0.00,,,0.00,meteobridge,2013-08-13 04:43:00,
2013-08-13 00:48:00,69.6,68.7,29.90,West,270,0.0,0.0,97,0.00,,,0.00,meteobridge,2013-08-13 04:48:00,
2013-08-13 00:53:00,69.6,68.7,29.89,West,270,0.0,0.0,97,0.00,,,0.00,meteobridge,2013-08-13 04:53:00,
2013-08-13 00:58:00,69.4,68.5,29.89,West,270,0.0,0.0,97,0.00,,,0.00,meteobridge,2013-08-13 04:58:00,
2013-08-13 01:04:00,69.4,68.5,29.89,West,270,0.0,0.0,97,0.00,,,0.00,meteobridge,2013-08-13 05:04:00,
2013-08-13 01:09:00,69.3,68.4,29.89,NE,45,0.0,0.0,97,0.00,,,0.00,meteobridge,2013-08-13 05:09:00,
2013-08-13 01:14:00,69.3,68.4,29.89,NE,45,0.0,0.0,97,0.00,,,0.00,meteobridge,2013-08-13 05:14:00,
2013-08-13 01:19:00,69.1,68.2,29.89,NE,45,0.0,0.0,97,0.00,,,0.00,meteobridge,2013-08-13 05:19:00,
2013-08-13 01:24:00,69.1,68.2,29.89,NE,45,0.0,0.0,97,0.00,,,0.00,meteobridge,2013-08-13 05:24:00,
2013-08-13 01:29:00,68.9,68.0,29.89,NE,45,0.0,0.0,97,0.00,,,0.00,meteobridge,2013-08-13 05:29:00,
2013-08-13 01:35:00,68.9,68.0,29.89,NE,45,0.0,0.0,97,0.00,,,0.00,meteobridge,2013-08-13 05:35:00,
2013-08-13 01:40:00,68.9,68.0,29.89,NE,45,0.0,0.0,97,0.00,,,0.00,meteobridge,2013-08-13 05:40:00,
2013-08-13 01:45:00,69.1,68.2,29.88,West,270,0.0,0.0,97,0.00,,,0.00,meteobridge,2013-08-13 05:45:00,
2013-08-13 01:50:00,69.1,68.5,29.88,West,270,0.0,0.0,98,0.00,,,0.00,meteobridge,2013-08-13 05:50:00,
2013-08-13 01:55:00,69.1,68.5,29.88,West,270,0.0,0.0,98,0.00,,,0.00,meteobridge,2013-08-13 05:55:00,
2013-08-13 02:00:00,69.1,68.5,29.88,West,270,0.0,0.0,98,0.00,,,0.00,meteobridge,2013-08-13 06:00:00,
2013-08-13 02:06:00,69.1,68.5,29.88,West,270,0.0,0.0,98,0.00,,,0.00,meteobridge,2013-08-13 06:06:00,
2013-08-13 02:11:00,68.9,68.4,29.88,West,270,0.0,0.0,98,0.00,,,0.00,meteobridge,2013-08-13 06:11:00,
2013-08-13 02:16:00,68.9,68.4,29.88,West,270,0.0,0.0,98,0.00,,,0.00,meteobridge,2013-08-13 06:16:00,
2013-08-13 02:21:00,68.9,68.4,29.88,West,270,0.0,0.0,98,0.00,,,0.00,meteobridge,2013-08-13 06:21:00,
2013-08-13 02:26:00,68.9,68.4,29.88,West,270,0.0,0.0,98,0.00,,,0.00,meteobridge,2013-08-13 06:26:00,
2013-08-13 02:31:00,68.9,68.4,29.88,West,270,0.0,0.0,98,0.00,,,0.00,meteobridge,2013-08-13 06:31:00,
2013-08-13 02:37:00,68.9,68.4,29.88,West,270,0.0,0.0,98,0.00,,,0.00,meteobridge,2013-08-13 06:37:00,
2013-08-13 02:42:00,68.9,68.4,29.88,West,270,0.0,0.0,98,0.00,,,0.00,meteobridge,2013-08-13 06:42:00,
2013-08-13 02:47:00,68.9,68.4,29.88,West,270,0.0,0.0,98,0.00,,,0.00,meteobridge,2013-08-13 06:47:00,
2013-08-13 02:52:00,68.7,68.2,29.87,West,270,0.0,0.0,98,0.00,,,0.00,meteobridge,2013-08-13 06:52:00,
2013-08-13 02:57:00,68.7,68.2,29.86,West,270,0.0,0.0,98,0.00,,,0.00,meteobridge,2013-08-13 06:57:00,
2013-08-13 03:02:00,68.5,68.0,29.86,West,270,0.0,0.0,98,0.00,,,0.00,meteobridge,2013-08-13 07:02:00,
2013-08-13 03:08:00,68.5,68.0,29.87,West,270,0.0,0.0,98,0.00,,,0.00,meteobridge,2013-08-13 07:08:00,
2013-08-13 03:13:00,68.4,67.8,29.87,West,270,0.7,0.7,98,0.00,,,0.00,meteobridge,2013-08-13 07:13:00,
2013-08-13 03:18:00,68.4,67.8,29.86,West,270,0.7,0.7,98,0.00,,,0.00,meteobridge,2013-08-13 07:18:00,
2013-08-13 03:23:00,68.2,67.6,29.87,North,0,0.0,0.0,98,0.00,,,0.00,meteobridge,2013-08-13 07:23:00,
2013-08-13 03:28:00,68.0,67.5,29.87,North,0,0.0,0.0,98,0.00,,,0.00,meteobridge,2013-08-13 07:28:00,
2013-08-13 03:34:00,67.8,67.5,29.86,North,0,0.0,0.0,99,0.00,,,0.00,meteobridge,2013-08-13 07:34:00,
2013-08-13 03:39:00,67.8,67.5,29.86,North,0,0.0,0.0,99,0.00,,,0.00,meteobridge,2013-08-13 07:39:00,
2013-08-13 03:44:00,67.6,67.3,29.86,North,0,0.0,0.0,99,0.00,,,0.00,meteobridge,2013-08-13 07:44:00,
2013-08-13 03:49:00,67.5,67.1,29.87,North,0,0.0,0.0,99,0.00,,,0.00,meteobridge,2013-08-13 07:49:00,
2013-08-13 03:54:00,67.5,67.1,29.87,North,0,0.0,0.0,99,0.00,,,0.00,meteobridge,2013-08-13 07:54:00,
2013-08-13 03:59:00,67.3,66.9,29.86,North,0,0.0,0.0,99,0.00,,,0.00,meteobridge,2013-08-13 07:59:00,
2013-08-13 04:05:00,67.1,66.7,29.87,West,270,0.0,0.0,99,0.00,,,0.00,meteobridge,2013-08-13 08:05:00,
2013-08-13 04:10:00,66.9,66.6,29.86,West,270,0.0,0.0,99,0.00,,,0.00,meteobridge,2013-08-13 08:10:00,
2013-08-13 04:15:00,66.9,66.6,29.86,West,270,0.0,0.0,99,0.00,,,0.00,meteobridge,2013-08-13 08:15:00,
2013-08-13 04:20:00,66.9,66.6,29.86,West,270,0.0,0.0,99,0.00,,,0.00,meteobridge,2013-08-13 08:20:00,
2013-08-13 04:25:00,66.9,66.6,29.86,West,270,0.0,0.0,99,0.00,,,0.00,meteobridge,2013-08-13 08:25:00,
2013-08-13 04:30:00,66.9,66.6,29.86,West,270,0.0,0.0,99,0.00,,,0.00,meteobridge,2013-08-13 08:30:00,
2013-08-13 04:36:00,66.9,66.6,29.86,West,270,0.0,0.0,99,0.00,,,0.00,meteobridge,2013-08-13 08:36:00,
2013-08-13 04:41:00,66.7,66.4,29.86,West,270,0.0,0.0,99,0.00,,,0.00,meteobridge,2013-08-13 08:41:00,
2013-08-13 04:46:00,66.7,66.4,29.86,West,270,0.0,0.0,99,0.00,,,0.00,meteobridge,2013-08-13 08:46:00,
2013-08-13 04:51:00,66.7,66.4,29.86,West,270,0.0,0.0,99,0.00,,,0.00,meteobridge,2013-08-13 08:51:00,
2013-08-13 04:56:00,66.7,66.4,29.86,West,270,0.0,0.0,99,0.00,,,0.00,meteobridge,2013-08-13 08:56:00,
2013-08-13 05:01:00,66.7,66.4,29.85,West,270,0.0,0.0,99,0.00,,,0.00,meteobridge,2013-08-13 09:01:00,
2013-08-13 05:07:00,66.6,66.2,29.86,West,270,0.0,0.0,99,0.00,,,0.00,meteobridge,2013-08-13 09:07:00,
2013-08-13 05:12:00,66.6,66.2,29.86,West,270,0.0,0.0,99,0.00,,,0.00,meteobridge,2013-08-13 09:12:00,
2013-08-13 05:17:00,66.4,66.0,29.86,West,270,0.0,0.0,99,0.00,,,0.00,meteobridge,2013-08-13 09:17:00,
2013-08-13 05:22:00,66.6,66.2,29.85,West,270,0.0,0.0,99,0.00,,,0.00,meteobridge,2013-08-13 09:22:00,
2013-08-13 05:27:00,66.6,66.2,29.85,West,270,0.0,0.0,99,0.00,,,0.00,meteobridge,2013-08-13 09:27:00,
2013-08-13 05:32:00,66.6,66.2,29.85,West,270,0.0,0.7,99,0.00,,,0.00,meteobridge,2013-08-13 09:32:00,
2013-08-13 05:38:00,66.7,66.4,29.86,West,270,0.0,0.7,99,0.00,,,0.00,meteobridge,2013-08-13 09:38:00,
2013-08-13 05:43:00,66.7,66.4,29.86,SW,225,0.0,0.7,99,0.00,,,0.00,meteobridge,2013-08-13 09:43:00,
2013-08-13 05:48:00,66.7,66.4,29.86,East,90,0.0,0.0,99,0.00,,,0.00,meteobridge,2013-08-13 09:48:00,
2013-08-13 05:53:00,66.9,66.6,29.86,West,270,0.0,0.0,99,0.00,,,0.00,meteobridge,2013-08-13 09:53:00,
2013-08-13 05:58:00,67.1,66.7,29.86,West,270,0.0,0.0,99,0.00,,,0.00,meteobridge,2013-08-13 09:58:00,
2013-08-13 06:03:00,67.1,66.7,29.86,North,0,1.6,1.6,99,0.00,,,0.00,meteobridge,2013-08-13 10:03:00,
2013-08-13 06:09:00,67.5,67.1,29.86,North,0,0.0,0.7,99,0.00,,,0.00,meteobridge,2013-08-13 10:09:00,
2013-08-13 06:14:00,67.6,67.3,29.85,North,0,0.0,0.7,99,0.00,,,0.00,meteobridge,2013-08-13 10:14:00,
2013-08-13 06:19:00,67.6,67.3,29.85,North,0,0.0,0.0,99,0.00,,,0.00,meteobridge,2013-08-13 10:19:00,
2013-08-13 06:24:00,67.8,67.5,29.85,NW,315,0.7,0.7,99,0.00,,,0.00,meteobridge,2013-08-13 10:24:00,
2013-08-13 06:29:00,67.8,67.5,29.85,West,270,0.0,0.0,99,0.00,,,0.00,meteobridge,2013-08-13 10:29:00,
2013-08-13 06:34:00,68.0,67.6,29.85,West,270,0.7,1.6,99,0.00,,,0.00,meteobridge,2013-08-13 10:34:00,
2013-08-13 06:40:00,68.2,67.8,29.85,SE,135,0.7,0.7,99,0.00,,,0.00,meteobridge,2013-08-13 10:40:00,
2013-08-13 06:45:00,68.2,67.8,29.85,NW,315,0.0,0.0,99,0.00,,,0.00,meteobridge,2013-08-13 10:45:00,
2013-08-13 06:50:00,68.4,68.0,29.85,West,270,0.0,0.0,99,0.00,,,0.00,meteobridge,2013-08-13 10:50:00,
2013-08-13 06:55:00,68.5,68.2,29.85,NW,315,0.0,1.6,99,0.00,,,0.00,meteobridge,2013-08-13 10:55:00,
2013-08-13 07:00:00,68.5,68.2,29.85,North,0,0.0,0.0,99,0.00,,,0.00,meteobridge,2013-08-13 11:00:00,
2013-08-13 07:05:00,68.7,68.4,29.85,NW,315,1.6,1.6,99,0.00,,,0.00,meteobridge,2013-08-13 11:05:00,
2013-08-13 07:11:00,68.7,68.4,29.85,East,90,0.7,1.6,99,0.00,,,0.00,meteobridge,2013-08-13 11:11:00,
2013-08-13 07:16:00,68.7,68.4,29.85,NW,315,0.7,0.7,99,0.00,,,0.00,meteobridge,2013-08-13 11:16:00,
2013-08-13 07:21:00,68.7,68.4,29.85,SW,225,0.7,0.7,99,0.00,,,0.00,meteobridge,2013-08-13 11:21:00,
2013-08-13 07:26:00,68.7,68.4,29.85,NW,315,0.7,0.7,99,0.00,,,0.00,meteobridge,2013-08-13 11:26:00,
2013-08-13 07:31:00,68.9,68.5,29.85,North,0,1.6,1.6,99,0.00,,,0.00,meteobridge,2013-08-13 11:31:00,
2013-08-13 07:36:00,69.1,68.7,29.85,West,270,0.0,0.0,99,0.00,,,0.00,meteobridge,2013-08-13 11:36:00,
2013-08-13 07:42:00,69.4,69.1,29.84,NNE,23,0.0,0.0,99,0.00,,,0.00,meteobridge,2013-08-13 11:42:00,
2013-08-13 07:47:00,69.6,69.3,29.84,East,90,0.0,0.0,99,0.00,,,0.00,meteobridge,2013-08-13 11:47:00,
2013-08-13 07:52:00,69.8,69.3,29.84,South,180,0.0,0.0,98,0.00,,,0.00,meteobridge,2013-08-13 11:52:00,
2013-08-13 07:57:00,69.8,69.3,29.84,West,270,0.0,0.7,98,0.00,,,0.00,meteobridge,2013-08-13 11:57:00,
2013-08-13 08:02:00,70.0,69.4,29.84,NE,45,0.7,0.7,98,0.00,,,0.00,meteobridge,2013-08-13 12:02:00,
2013-08-13 08:07:00,70.2,69.6,29.84,NW,315,2.2,2.2,98,0.00,,,0.00,meteobridge,2013-08-13 12:07:00,
2013-08-13 08:13:00,70.2,69.6,29.84,SW,225,0.0,0.7,98,0.00,,,0.00,meteobridge,2013-08-13 12:13:00,
2013-08-13 08:18:00,70.5,70.0,29.83,SE,135,0.7,0.7,98,0.00,,,0.00,meteobridge,2013-08-13 12:18:00,
2013-08-13 08:23:00,70.7,70.2,29.83,NE,45,2.2,2.2,98,0.00,,,0.00,meteobridge,2013-08-13 12:23:00,
2013-08-13 08:28:00,70.9,70.3,29.83,NW,315,0.0,0.0,98,0.00,,,0.00,meteobridge,2013-08-13 12:28:00,
2013-08-13 08:33:00,71.4,70.9,29.83,North,0,0.7,0.7,98,0.00,,,0.00,meteobridge,2013-08-13 12:33:00,
2013-08-13 08:38:00,72.0,71.1,29.82,SW,225,0.7,0.7,97,0.00,,,0.00,meteobridge,2013-08-13 12:38:00,
2013-08-13 08:44:00,72.3,71.4,29.82,SE,135,0.0,0.7,97,0.00,,,0.00,meteobridge,2013-08-13 12:44:00,
2013-08-13 08:49:00,72.5,71.6,29.82,North,0,0.7,1.6,97,0.00,,,0.00,meteobridge,2013-08-13 12:49:00,
2013-08-13 08:54:00,72.9,72.0,29.83,SW,225,0.7,1.6,97,0.00,,,0.00,meteobridge,2013-08-13 12:54:00,
2013-08-13 08:59:00,73.6,72.7,29.82,West,270,0.0,0.7,97,0.00,,,0.00,meteobridge,2013-08-13 12:59:00,
2013-08-13 09:04:00,74.1,73.2,29.82,NW,315,1.6,1.6,97,0.00,,,0.00,meteobridge,2013-08-13 13:04:00,
2013-08-13 09:09:00,74.5,73.2,29.82,North,0,0.7,0.7,96,0.00,,,0.00,meteobridge,2013-08-13 13:09:00,
2013-08-13 09:15:00,75.0,73.4,29.82,SW,225,1.6,1.6,95,0.00,,,0.00,meteobridge,2013-08-13 13:15:00,
2013-08-13 09:20:00,75.0,72.9,29.82,East,90,0.7,1.6,93,0.00,,,0.00,meteobridge,2013-08-13 13:20:00,
2013-08-13 09:25:00,75.2,72.1,29.82,SSW,203,0.7,1.6,90,0.00,,,0.00,meteobridge,2013-08-13 13:25:00,
2013-08-13 09:30:00,75.0,72.0,29.82,NW,315,0.7,0.7,90,0.00,,,0.00,meteobridge,2013-08-13 13:30:00,
2013-08-13 09:35:00,74.5,71.1,29.82,SE,135,0.7,1.6,89,0.00,,,0.00,meteobridge,2013-08-13 13:35:00,
2013-08-13 09:41:00,74.1,70.3,29.82,NW,315,0.7,1.6,88,0.00,,,0.00,meteobridge,2013-08-13 13:41:00,
2013-08-13 09:46:00,74.1,70.3,29.82,NW,315,0.7,0.7,88,0.00,,,0.00,meteobridge,2013-08-13 13:46:00,
2013-08-13 09:51:00,74.1,70.3,29.82,West,270,0.0,0.7,88,0.00,,,0.00,meteobridge,2013-08-13 13:51:00,
2013-08-13 09:56:00,73.9,70.2,29.82,North,0,0.7,0.7,88,0.00,,,0.00,meteobridge,2013-08-13 13:56:00,
2013-08-13 10:01:00,73.6,69.8,29.82,NE,45,0.0,1.6,88,0.00,,,0.00,meteobridge,2013-08-13 14:01:00,
2013-08-13 10:06:00,73.4,69.6,29.82,North,0,0.7,0.7,88,0.00,,,0.00,meteobridge,2013-08-13 14:06:00,
2013-08-13 10:12:00,73.4,69.6,29.82,SE,135,0.0,0.7,88,0.00,,,0.00,meteobridge,2013-08-13 14:12:00,
2013-08-13 10:17:00,73.4,69.6,29.81,North,0,0.7,0.7,88,0.00,,,0.00,meteobridge,2013-08-13 14:17:00,
2013-08-13 10:22:00,73.2,69.4,29.81,West,270,0.7,0.7,88,0.00,,,0.00,meteobridge,2013-08-13 14:22:00,
2013-08-13 10:27:00,73.2,69.1,29.81,ENE,68,0.7,0.7,87,0.00,,,0.00,meteobridge,2013-08-13 14:27:00,
2013-08-13 10:32:00,73.4,69.6,29.80,East,90,0.0,0.0,88,0.00,,,0.00,meteobridge,2013-08-13 14:32:00,
2013-08-13 10:37:00,73.6,69.8,29.80,East,90,0.0,0.0,88,0.00,,,0.00,meteobridge,2013-08-13 14:37:00,
2013-08-13 10:43:00,73.6,69.8,29.80,West,270,0.0,0.7,88,0.00,,,0.00,meteobridge,2013-08-13 14:43:00,
2013-08-13 10:48:00,73.6,69.4,29.81,SW,225,0.0,0.0,87,0.00,,,0.00,meteobridge,2013-08-13 14:48:00,
2013-08-13 10:53:00,73.9,69.8,29.81,East,90,0.0,0.0,87,0.00,,,0.00,meteobridge,2013-08-13 14:53:00,
2013-08-13 10:58:00,74.1,70.0,29.82,SE,135,0.7,0.7,87,0.00,,,0.00,meteobridge,2013-08-13 14:58:00,
2013-08-13 11:03:00,74.1,70.0,29.83,NW,315,0.0,0.7,87,0.00,,,0.00,meteobridge,2013-08-13 15:03:00,
2013-08-13 11:08:00,74.1,69.6,29.82,East,90,0.0,0.0,86,0.00,,,0.00,meteobridge,2013-08-13 15:08:00,
2013-08-13 11:14:00,74.5,70.0,29.81,East,90,0.7,0.7,86,0.00,,,0.00,meteobridge,2013-08-13 15:14:00,
2013-08-13 11:19:00,74.5,70.0,29.82,SW,225,0.7,0.7,86,0.00,,,0.00,meteobridge,2013-08-13 15:19:00,
2013-08-13 11:24:00,74.7,70.2,29.81,NW,315,0.7,0.7,86,0.00,,,0.00,meteobridge,2013-08-13 15:24:00,
2013-08-13 11:29:00,74.8,70.0,29.81,SW,225,0.7,0.7,85,0.00,,,0.00,meteobridge,2013-08-13 15:29:00,
2013-08-13 11:34:00,75.0,70.2,29.81,West,270,0.7,1.6,85,0.00,,,0.00,meteobridge,2013-08-13 15:34:00,
2013-08-13 11:39:00,75.2,70.0,29.81,NE,45,0.0,0.0,84,0.00,,,0.00,meteobridge,2013-08-13 15:39:00,
2013-08-13 11:45:00,75.7,70.5,29.81,NE,45,0.7,0.7,84,0.00,,,0.00,meteobridge,2013-08-13 15:45:00,
2013-08-13 11:50:00,75.9,70.3,29.81,West,270,0.7,0.7,83,0.00,,,0.00,meteobridge,2013-08-13 15:50:00,
2013-08-13 11:55:00,75.9,70.0,29.81,SW,225,0.7,0.7,82,0.00,,,0.00,meteobridge,2013-08-13 15:55:00,
2013-08-13 12:00:00,75.6,69.3,29.82,SW,225,0.7,0.7,81,0.00,,,0.00,meteobridge,2013-08-13 16:00:00,
2013-08-13 12:05:00,75.6,69.3,29.82,North,0,0.7,0.7,81,0.00,,,0.00,meteobridge,2013-08-13 16:05:00,
2013-08-13 12:10:00,75.7,70.2,29.82,West,270,0.7,0.7,83,0.00,,,0.00,meteobridge,2013-08-13 16:10:00,
2013-08-13 12:16:00,75.7,70.2,29.82,South,180,0.7,0.7,83,0.00,,,0.00,meteobridge,2013-08-13 16:16:00,
2013-08-13 12:21:00,75.4,69.8,29.82,South,180,0.7,0.7,83,0.00,,,0.00,meteobridge,2013-08-13 16:21:00,
2013-08-13 12:26:00,75.0,69.8,29.82,NE,45,0.7,0.7,84,0.00,,,0.00,meteobridge,2013-08-13 16:26:00,
2013-08-13 12:31:00,74.8,69.6,29.82,West,270,0.0,0.0,84,0.00,,,0.00,meteobridge,2013-08-13 16:31:00,
2013-08-13 12:36:00,74.5,69.6,29.81,West,270,0.7,0.7,85,0.00,,,0.00,meteobridge,2013-08-13 16:36:00,
2013-08-13 12:41:00,74.1,69.6,29.80,West,270,0.0,0.7,86,0.00,,,0.00,meteobridge,2013-08-13 16:41:00,
2013-08-13 12:47:00,74.1,70.0,29.80,North,0,0.0,0.0,87,0.00,,,0.00,meteobridge,2013-08-13 16:47:00,
2013-08-13 12:52:00,74.1,70.3,29.80,North,0,0.0,0.0,88,0.00,,,0.00,meteobridge,2013-08-13 16:52:00,
2013-08-13 12:57:00,73.8,70.0,29.82,NW,315,0.7,0.7,88,0.00,,,0.00,meteobridge,2013-08-13 16:57:00,
2013-08-13 13:02:00,73.6,69.8,29.82,NE,45,0.0,0.7,88,0.00,,,0.00,meteobridge,2013-08-13 17:02:00,
2013-08-13 13:07:00,73.2,69.4,29.82,East,90,0.0,0.0,88,0.00,,,0.00,meteobridge,2013-08-13 17:07:00,
2013-08-13 13:12:00,73.2,69.8,29.83,West,270,0.0,0.0,89,0.00,,,0.00,meteobridge,2013-08-13 17:12:00,
2013-08-13 13:17:00,72.7,69.3,29.83,South,180,0.0,1.6,89,0.00,,,0.00,meteobridge,2013-08-13 17:17:00,
2013-08-13 13:23:00,72.3,69.3,29.82,South,180,0.0,0.0,90,0.00,,,0.00,meteobridge,2013-08-13 17:23:00,
2013-08-13 13:28:00,72.3,69.6,29.82,East,90,0.0,0.7,91,0.00,,,0.00,meteobridge,2013-08-13 17:28:00,
2013-08-13 13:33:00,72.3,69.6,29.82,NW,315,0.0,0.7,91,0.00,,,0.00,meteobridge,2013-08-13 17:33:00,
2013-08-13 13:38:00,72.3,69.8,29.82,NE,45,0.0,0.7,92,0.00,,,0.00,meteobridge,2013-08-13 17:38:00,
2013-08-13 13:43:00,72.3,69.8,29.81,West,270,0.7,1.6,92,0.00,,,0.00,meteobridge,2013-08-13 17:43:00,
2013-08-13 13:48:00,72.5,70.3,29.81,NW,315,0.7,0.7,93,0.00,,,0.00,meteobridge,2013-08-13 17:48:00,
2013-08-13 13:54:00,72.5,70.3,29.81,East,90,0.7,0.7,93,0.00,,,0.00,meteobridge,2013-08-13 17:54:00,
2013-08-13 13:59:00,72.5,70.3,29.80,West,270,1.6,1.6,93,0.00,,,0.00,meteobridge,2013-08-13 17:59:00,
2013-08-13 14:04:00,72.1,70.0,29.79,West,270,0.7,1.6,93,0.00,,,0.00,meteobridge,2013-08-13 18:04:00,
2013-08-13 14:09:00,72.0,69.8,29.78,West,270,1.6,1.6,93,0.00,,,0.00,meteobridge,2013-08-13 18:09:00,
2013-08-13 14:14:00,72.0,69.8,29.77,NW,315,0.7,0.7,93,0.00,,,0.00,meteobridge,2013-08-13 18:14:00,
2013-08-13 14:19:00,71.8,69.6,29.77,West,270,0.7,0.7,93,0.00,,,0.00,meteobridge,2013-08-13 18:19:00,
2013-08-13 14:25:00,71.8,70.0,29.77,North,0,0.0,0.7,94,0.00,,,0.00,meteobridge,2013-08-13 18:25:00,
2013-08-13 14:30:00,72.0,70.2,29.76,NW,315,0.0,0.7,94,0.00,,,0.00,meteobridge,2013-08-13 18:30:00,
2013-08-13 14:35:00,71.6,69.8,29.76,NW,315,0.7,0.7,94,0.00,,,0.00,meteobridge,2013-08-13 18:35:00,
2013-08-13 14:40:00,71.4,70.0,29.77,NE,45,0.7,0.7,95,0.00,,,0.00,meteobridge,2013-08-13 18:40:00,
2013-08-13 14:45:00,71.4,70.0,29.76,West,270,0.7,0.7,95,0.00,,,0.00,meteobridge,2013-08-13 18:45:00,
2013-08-13 14:50:00,71.2,69.4,29.75,North,0,0.0,0.7,94,0.00,,,0.00,meteobridge,2013-08-13 18:50:00,
2013-08-13 14:56:00,71.1,69.3,29.74,SE,135,0.0,0.7,94,0.00,,,0.00,meteobridge,2013-08-13 18:56:00,
2013-08-13 15:01:00,71.2,69.8,29.74,NW,315,0.7,0.7,95,0.00,,,0.00,meteobridge,2013-08-13 19:01:00,
2013-08-13 15:06:00,71.1,69.6,29.74,North,0,0.0,0.7,95,0.00,,,0.00,meteobridge,2013-08-13 19:06:00,
2013-08-13 15:11:00,71.1,69.6,29.73,North,0,0.0,0.0,95,0.00,,,0.00,meteobridge,2013-08-13 19:11:00,
2013-08-13 15:16:00,71.2,69.8,29.73,North,0,0.0,0.0,95,0.00,,,0.00,meteobridge,2013-08-13 19:16:00,
2013-08-13 15:21:00,71.1,69.6,29.74,SW,225,0.0,0.0,95,0.00,,,0.00,meteobridge,2013-08-13 19:21:00,
2013-08-13 15:27:00,71.1,69.6,29.75,South,180,0.7,1.6,95,0.00,,,0.00,meteobridge,2013-08-13 19:27:00,
2013-08-13 15:32:00,71.1,69.6,29.74,West,270,0.0,0.7,95,0.00,,,0.00,meteobridge,2013-08-13 19:32:00,
2013-08-13 15:37:00,71.1,69.6,29.73,West,270,0.0,0.7,95,0.00,,,0.00,meteobridge,2013-08-13 19:37:00,
2013-08-13 15:42:00,70.7,69.3,29.72,NE,45,0.7,0.7,95,0.00,,,0.00,meteobridge,2013-08-13 19:42:00,
2013-08-13 15:47:00,70.3,68.9,29.72,NW,315,0.7,0.7,95,0.00,,,0.00,meteobridge,2013-08-13 19:47:00,
2013-08-13 15:52:00,70.3,68.9,29.72,East,90,0.7,0.7,95,0.00,,,0.00,meteobridge,2013-08-13 19:52:00,
2013-08-13 15:58:00,70.3,68.9,29.71,North,0,0.0,0.0,95,0.00,,,0.00,meteobridge,2013-08-13 19:58:00,
2013-08-13 16:03:00,70.3,68.9,29.71,NE,45,0.7,0.7,95,0.00,,,0.00,meteobridge,2013-08-13 20:03:00,
2013-08-13 16:08:00,70.3,68.9,29.72,North,0,0.7,1.6,95,0.00,,,0.00,meteobridge,2013-08-13 20:08:00,
2013-08-13 16:13:00,70.2,68.7,29.72,East,90,1.6,2.2,95,0.00,,,0.00,meteobridge,2013-08-13 20:13:00,
2013-08-13 16:18:00,70.2,68.7,29.72,East,90,0.7,0.7,95,0.00,,,0.00,meteobridge,2013-08-13 20:18:00,
2013-08-13 16:23:00,70.0,68.5,29.71,West,270,1.6,1.6,95,0.00,,,0.00,meteobridge,2013-08-13 20:23:00,
2013-08-13 16:29:00,69.8,68.5,29.71,NE,45,2.2,2.2,96,0.00,,,0.00,meteobridge,2013-08-13 20:29:00,
2013-08-13 16:34:00,69.8,68.5,29.71,NE,45,0.7,1.6,96,0.00,,,0.00,meteobridge,2013-08-13 20:34:00,
2013-08-13 16:39:00,69.6,68.7,29.71,North,0,0.7,0.7,97,0.00,,,0.00,meteobridge,2013-08-13 20:39:00,
2013-08-13 16:44:00,69.6,68.7,29.71,NE,45,0.7,0.7,97,0.00,,,0.00,meteobridge,2013-08-13 20:44:00,
2013-08-13 16:49:00,69.6,68.7,29.71,East,90,0.7,0.7,97,0.00,,,0.00,meteobridge,2013-08-13 20:49:00,
2013-08-13 16:54:00,69.6,68.7,29.71,NE,45,0.0,0.7,97,0.00,,,0.00,meteobridge,2013-08-13 20:54:00,
2013-08-13 17:00:00,69.8,68.5,29.70,East,90,0.0,0.7,96,0.00,,,0.00,meteobridge,2013-08-13 21:00:00,
2013-08-13 17:05:00,69.8,68.5,29.70,East,90,0.0,0.0,96,0.00,,,0.00,meteobridge,2013-08-13 21:05:00,
2013-08-13 17:10:00,69.8,68.5,29.69,NW,315,0.0,0.7,96,0.00,,,0.00,meteobridge,2013-08-13 21:10:00,
2013-08-13 17:15:00,69.6,68.7,29.69,West,270,0.0,0.7,97,0.00,,,0.00,meteobridge,2013-08-13 21:15:00,
2013-08-13 17:20:00,69.4,68.5,29.70,West,270,0.0,0.0,97,0.00,,,0.00,meteobridge,2013-08-13 21:20:00,
2013-08-13 17:25:00,69.4,68.5,29.70,North,0,0.0,0.0,97,0.00,,,0.00,meteobridge,2013-08-13 21:25:00,
2013-08-13 17:31:00,69.4,68.5,29.70,NE,45,0.0,0.0,97,0.00,,,0.00,meteobridge,2013-08-13 21:31:00,
2013-08-13 17:36:00,69.3,68.0,29.69,East,90,0.0,0.0,96,0.00,,,0.00,meteobridge,2013-08-13 21:36:00,
2013-08-13 17:41:00,69.3,68.0,29.68,East,90,0.0,0.7,96,0.00,,,0.00,meteobridge,2013-08-13 21:41:00,
2013-08-13 17:46:00,69.1,67.8,29.67,West,270,0.0,0.0,96,0.00,,,0.00,meteobridge,2013-08-13 21:46:00,
2013-08-13 17:51:00,69.1,67.8,29.67,West,270,0.0,0.0,96,0.00,,,0.00,meteobridge,2013-08-13 21:51:00,
2013-08-13 17:57:00,69.3,68.0,29.67,South,180,0.0,0.0,96,0.00,,,0.00,meteobridge,2013-08-13 21:57:00,
2013-08-13 18:02:00,69.6,68.4,29.67,NNW,338,1.6,1.6,96,0.00,,,0.00,meteobridge,2013-08-13 22:02:00,
2013-08-13 18:07:00,69.8,68.4,29.67,NW,315,0.0,0.0,95,0.00,,,0.00,meteobridge,2013-08-13 22:07:00,
2013-08-13 18:12:00,69.8,68.4,29.66,SW,225,0.7,0.7,95,0.00,,,0.00,meteobridge,2013-08-13 22:12:00,
2013-08-13 18:17:00,69.8,68.4,29.66,SE,135,0.7,0.7,95,0.00,,,0.00,meteobridge,2013-08-13 22:17:00,
2013-08-13 18:22:00,70.0,68.5,29.66,West,270,0.7,1.6,95,0.00,,,0.00,meteobridge,2013-08-13 22:22:00,
2013-08-13 18:28:00,70.0,68.5,29.66,East,90,0.0,1.6,95,0.00,,,0.00,meteobridge,2013-08-13 22:28:00,
2013-08-13 18:33:00,69.8,68.4,29.67,NW,315,0.0,0.7,95,0.00,,,0.00,meteobridge,2013-08-13 22:33:00,
2013-08-13 18:38:00,69.8,68.4,29.67,South,180,0.0,0.0,95,0.00,,,0.00,meteobridge,2013-08-13 22:38:00,
2013-08-13 18:43:00,69.8,68.4,29.67,East,90,0.7,0.7,95,0.00,,,0.00,meteobridge,2013-08-13 22:43:00,
2013-08-13 18:48:00,69.8,68.4,29.67,North,0,0.0,0.7,95,0.00,,,0.00,meteobridge,2013-08-13 22:48:00,
2013-08-13 18:53:00,69.6,68.4,29.67,North,0,0.0,0.0,96,0.00,,,0.00,meteobridge,2013-08-13 22:53:00,
2013-08-13 18:59:00,69.6,68.4,29.67,SE,135,0.0,0.0,96,0.00,,,0.00,meteobridge,2013-08-13 22:59:00,
2013-08-13 19:04:00,69.4,68.2,29.67,East,90,0.0,0.0,96,0.01,,,0.01,meteobridge,2013-08-13 23:04:00,
2013-08-13 19:09:00,69.4,68.0,29.67,East,90,0.0,0.0,95,0.01,,,0.01,meteobridge,2013-08-13 23:09:00,
2013-08-13 19:14:00,69.3,67.8,29.67,East,90,0.0,0.0,95,0.01,,,0.01,meteobridge,2013-08-13 23:14:00,
2013-08-13 19:20:00,69.3,67.8,29.67,West,270,0.0,0.0,95,0.01,,,0.01,meteobridge,2013-08-13 23:20:00,
2013-08-13 19:25:00,69.1,67.6,29.67,West,270,0.0,0.0,95,0.01,,,0.01,meteobridge,2013-08-13 23:25:00,
2013-08-13 19:30:00,69.1,67.6,29.68,North,0,0.0,0.7,95,0.01,,,0.01,meteobridge,2013-08-13 23:30:00,
2013-08-13 19:35:00,68.9,67.5,29.68,North,0,0.0,0.0,95,0.01,,,0.01,meteobridge,2013-08-13 23:35:00,
2013-08-13 19:40:00,68.7,67.3,29.68,North,0,0.0,0.0,95,0.01,,,0.01,meteobridge,2013-08-13 23:40:00,
2013-08-13 19:46:00,68.7,67.3,29.68,North,0,0.0,0.0,95,0.01,,,0.01,meteobridge,2013-08-13 23:46:00,
2013-08-13 19:51:00,68.5,67.1,29.68,North,0,0.0,0.0,95,0.01,,,0.01,meteobridge,2013-08-13 23:51:00,
2013-08-13 19:56:00,68.5,67.1,29.68,North,0,0.0,0.0,95,0.01,,,0.01,meteobridge,2013-08-13 23:56:00,
2013-08-13 20:01:00,68.5,67.3,29.68,North,0,0.0,0.0,96,0.00,,,0.01,meteobridge,2013-08-14 00:01:00,
2013-08-13 20:06:00,68.4,67.1,29.68,North,0,0.0,0.0,96,0.00,,,0.01,meteobridge,2013-08-14 00:06:00,
2013-08-13 20:11:00,68.4,67.1,29.68,North,0,0.0,0.0,96,0.00,,,0.01,meteobridge,2013-08-14 00:11:00,
2013-08-13 20:17:00,68.4,67.1,29.68,North,0,0.0,0.0,96,0.00,,,0.01,meteobridge,2013-08-14 00:17:00,
2013-08-13 20:22:00,68.4,67.1,29.68,North,0,0.0,0.0,96,0.00,,,0.01,meteobridge,2013-08-14 00:22:00,
2013-08-13 20:27:00,68.4,67.1,29.68,SW,225,0.0,0.0,96,0.00,,,0.01,meteobridge,2013-08-14 00:27:00,
2013-08-13 20:32:00,68.4,67.1,29.68,SW,225,0.0,0.0,96,0.00,,,0.01,meteobridge,2013-08-14 00:32:00,
2013-08-13 20:37:00,68.4,67.1,29.68,SW,225,0.0,0.0,96,0.00,,,0.01,meteobridge,2013-08-14 00:37:00,
2013-08-13 20:42:00,68.4,67.1,29.69,SW,225,0.0,0.0,96,0.00,,,0.01,meteobridge,2013-08-14 00:42:00,
2013-08-13 20:48:00,68.4,67.5,29.68,SW,225,0.0,0.0,97,0.00,,,0.01,meteobridge,2013-08-14 00:48:00,
2013-08-13 20:53:00,68.4,67.5,29.69,NE,45,0.0,0.0,97,0.00,,,0.01,meteobridge,2013-08-14 00:53:00,
2013-08-13 20:58:00,68.4,67.5,29.68,SE,135,0.0,0.0,97,0.00,,,0.01,meteobridge,2013-08-14 00:58:00,
2013-08-13 21:03:00,68.4,67.5,29.68,SE,135,0.0,0.0,97,0.00,,,0.01,meteobridge,2013-08-14 01:03:00,
2013-08-13 21:08:00,68.4,67.5,29.68,SE,135,0.0,0.0,97,0.00,,,0.01,meteobridge,2013-08-14 01:08:00,
2013-08-13 21:13:00,68.4,67.5,29.68,SE,135,0.0,0.0,97,0.00,,,0.01,meteobridge,2013-08-14 01:13:00,
2013-08-13 21:19:00,68.4,67.5,29.68,SE,135,0.0,0.0,97,0.00,,,0.01,meteobridge,2013-08-14 01:19:00,
2013-08-13 21:24:00,68.4,67.5,29.68,SE,135,0.0,0.0,97,0.00,,,0.01,meteobridge,2013-08-14 01:24:00,
2013-08-13 21:29:00,68.4,67.5,29.68,SE,135,0.0,0.0,97,0.00,,,0.01,meteobridge,2013-08-14 01:29:00,
2013-08-13 21:34:00,68.4,67.5,29.68,SE,135,0.0,0.0,97,0.00,,,0.01,meteobridge,2013-08-14 01:34:00,
2013-08-13 21:39:00,68.2,67.3,29.68,SE,135,0.0,0.0,97,0.00,,,0.01,meteobridge,2013-08-14 01:39:00,
2013-08-13 21:44:00,68.2,67.3,29.68,SE,135,0.0,0.0,97,0.00,,,0.01,meteobridge,2013-08-14 01:44:00,
2013-08-13 21:50:00,68.2,67.3,29.68,SE,135,0.0,0.0,97,0.00,,,0.01,meteobridge,2013-08-14 01:50:00,
2013-08-13 21:55:00,68.4,67.5,29.68,SE,135,0.0,0.0,97,0.00,,,0.01,meteobridge,2013-08-14 01:55:00,
2013-08-13 22:00:00,68.4,67.5,29.68,SE,135,0.0,0.0,97,0.00,,,0.01,meteobridge,2013-08-14 02:00:00,
2013-08-13 22:05:00,68.4,67.5,29.68,SE,135,0.0,0.0,97,0.00,,,0.01,meteobridge,2013-08-14 02:05:00,
2013-08-13 22:10:00,68.2,67.6,29.68,SE,135,0.0,0.0,98,0.00,,,0.01,meteobridge,2013-08-14 02:10:00,
2013-08-13 22:15:00,68.2,67.6,29.68,SE,135,0.0,0.0,98,0.00,,,0.01,meteobridge,2013-08-14 02:15:00,
2013-08-13 22:21:00,68.2,67.6,29.68,SE,135,0.0,0.0,98,0.00,,,0.01,meteobridge,2013-08-14 02:21:00,
2013-08-13 22:26:00,68.2,67.6,29.68,SE,135,0.0,0.0,98,0.00,,,0.01,meteobridge,2013-08-14 02:26:00,
2013-08-13 22:31:00,68.2,67.6,29.67,SE,135,0.0,0.0,98,0.00,,,0.01,meteobridge,2013-08-14 02:31:00,
2013-08-13 22:36:00,68.2,67.6,29.67,SE,135,0.0,0.0,98,0.00,,,0.01,meteobridge,2013-08-14 02:36:00,
2013-08-13 22:41:00,68.2,67.6,29.66,SE,135,0.0,0.0,98,0.00,,,0.01,meteobridge,2013-08-14 02:41:00,
2013-08-13 22:46:00,68.4,67.8,29.66,SE,135,0.0,0.0,98,0.00,,,0.01,meteobridge,2013-08-14 02:46:00,
2013-08-13 22:52:00,68.4,67.8,29.67,SE,135,0.0,0.0,98,0.00,,,0.01,meteobridge,2013-08-14 02:52:00,
2013-08-13 22:57:00,68.2,67.6,29.67,SE,135,0.0,0.0,98,0.00,,,0.01,meteobridge,2013-08-14 02:57:00,
2013-08-13 23:02:00,68.2,67.6,29.66,SE,135,0.0,0.0,98,0.00,,,0.01,meteobridge,2013-08-14 03:02:00,
2013-08-13 23:07:00,68.2,67.6,29.67,SE,135,0.0,0.0,98,0.00,,,0.01,meteobridge,2013-08-14 03:07:00,
2013-08-13 23:12:00,68.2,67.6,29.66,SE,135,0.0,0.0,98,0.00,,,0.01,meteobridge,2013-08-14 03:12:00,
2013-08-13 23:17:00,68.2,67.6,29.65,SE,135,0.0,0.0,98,0.00,,,0.01,meteobridge,2013-08-14 03:17:00,
2013-08-13 23:23:00,68.0,67.5,29.64,SE,135,0.0,0.0,98,0.00,,,0.01,meteobridge,2013-08-14 03:23:00,
2013-08-13 23:28:00,67.8,67.5,29.65,SE,135,0.0,0.0,99,0.00,,,0.01,meteobridge,2013-08-14 03:28:00,
2013-08-13 23:33:00,67.6,67.3,29.65,SE,135,0.0,0.0,99,0.00,,,0.01,meteobridge,2013-08-14 03:33:00,
2013-08-13 23:38:00,67.5,67.1,29.65,SE,135,0.0,0.0,99,0.00,,,0.01,meteobridge,2013-08-14 03:38:00,
2013-08-13 23:43:00,67.3,66.9,29.65,SE,135,0.0,0.0,99,0.00,,,0.01,meteobridge,2013-08-14 03:43:00,
2013-08-13 23:48:00,67.3,66.9,29.66,SE,135,0.0,0.0,99,0.00,,,0.01,meteobridge,2013-08-14 03:48:00,
2013-08-13 23:54:00,67.1,66.7,29.66,SE,135,0.0,0.0,99,0.00,,,0.01,meteobridge,2013-08-14 03:54:00,
2013-08-13 23:59:00,67.1,66.7,29.66,SE,135,0.0,0.0,99,0.00,,,0.01,meteobridge,2013-08-14 03:59:00,